Regional Weather Roundup
Issued by NWS

Home | Current Version | Previous Version | Text Only | Print | Product List | Glossary On
Versions: 1 2 3 4 5 6 7 8 9 10 11 12 13 14 15 16 17 18 19 20 21 22 23 24 25 26 27 28 29 30 31 32 33 34 35 36 37 38 39 40 41 42 43 44 45 46 47 48 49 50
000
ASUS43 KLMK 230610
RWRKY
KENTUCKY REGIONAL WEATHER ROUNDUP
NATIONAL WEATHER SERVICE LOUISVILLE KY
200 AM EDT WED JUL 23 2014

NOTE "FAIR" INDICATES FEW OR NO CLOUDS BELOW 12,000 FEET
WITH NO SIGNIFICANT WEATHER AND/OR OBSTRUCTIONS TO VISIBILITY.

KYZ001>023-026-027-061>063-070>075-230700-
WESTERN AND SOUTH CENTRAL KENTUCKY

CITY           SKY/WX    TMP DP  RH WIND       PRES   REMARKS
PADUCAH        CLEAR     78  70  76 S5        30.03F
HENDERSON      CLEAR    N/A N/A N/A MISG        N/A
OWENSBORO      CLEAR     75  71  87 CALM      30.04S
HOPKINSVILLE   CLEAR     76  76 100 SW5       30.06F
BOWLING GREEN  CLEAR     78  70  76 SW6       30.06F
GLASGOW        CLEAR     74  69  83 CALM      30.07S
$$

KYZ024-025-028>034-038-045-046-053-230700-
NORTH CENTRAL KENTUCKY

CITY           SKY/WX    TMP DP  RH WIND       PRES   REMARKS
LOUISVILLE/SDF PTCLDY    81  72  74 CALM      30.03S
LOUISVILLE/LOU CLEAR     79  70  74 CALM      30.04S
FORT KNOX      CLEAR     72  71  98 SW1       30.04F
$$

KYZ035>037-039>044-047>052-055>060-089>105-230700-
NORTHEAST KENTUCKY

CITY           SKY/WX    TMP DP  RH WIND       PRES   REMARKS
LEXINGTON      PTCLDY    76  70  82 S6        30.06F
COVINGTON      CLEAR     71  67  87 CALM      30.04S
FRANKFORT      CLEAR     75  71  87 W5        30.04F
$$

KYZ054-064>069-076>088-106>120-230700-
SOUTHEAST KENTUCKY

CITY           SKY/WX    TMP DP  RH WIND       PRES   REMARKS
JACKSON        CLEAR     74  70  87 CALM      30.10R
LONDON         CLEAR     73  70  90 CALM      30.10S
SOMERSET       CLEAR     72  72 100 CALM      30.09F FOG
MIDDLESBORO    CLEAR     69  69  97 CALM      30.12S
MONTICELLO     CLEAR     73  73 100 CALM      30.10S FOG
$$



USA.gov is the U.S. government's official web portal to all federal, state and local government web resources and services.